Vertical_Velocity
-0 -4 -4 6 2 0 -1 -2 -2 -0 2 -0 1 -0 4 -3 -4 1 3 -2 -0 -3 -2 -2 -1 -1 -2 -0 -2 -2 -1 1 1 2 0 -1 0 -1 -1 -0 -2 -3 -0
-2 -3 -6 -4 4 -2 1 -2 -1 0 3 7 2 -3 3 1 8 -2 -1 -1 -2 1 1 -0 -2 -3 -3 -2 -1 0 -1 -3 -2 -2 0 2 1 -0 0 -1 0 0 1
3 -1 -3 -8 4 5 6 1 2 1 3 5 1 -5 -6 -0 -7 4 -2 1 -6 -4 -6 1 2 -0 -1 -3 -3 -2 3 2 0 -2 -2 0 -2 -1 -1 1 -1 0 -1
-1 -1 -0 -5 2 4 9 3 9 6 4 4 3 2 -2 -10 -1 8 1 -1 1 2 4 -0 -3 -3 -0 1 -2 -1 -2 1 -1 0 1 3 0 1 -1 -2 -0 -2 -1
0 0 -0 4 -0 -7 0 -11 2 4 10 6 9 2 2 1 -3 5 -3 1 3 1 -2 -2 0 3 1 -2 0 -1 1 -1 -1 -1 -2 1 -0 -1 0 -1 -2 -2 1
5 4 1 0 4 12 -12 2 -17 16 8 1 3 3 0 3 4 -4 -2 2 2 -1 1 2 -0 -6 -0 1 -1 -1 -4 0 -1 -4 2 -0 -3 -1 0 2 0 1 0
4 1 2 4 4 -7 -2 -7 0 -9 -3 -3 9 -2 -2 -4 5 -3 -2 -1 -2 0 -2 -0 -1 -2 -4 0 -3 -2 -4 -2 -1 -4 -3 1 2 -0 -1 -0 1 -1 1
4 9 -3 4 -5 -2 -5 6 2 -3 0 0 0 5 -0 -9 -8 -6 0 -4 -6 6 1 5 3 -8 -1 -1 -1 -2 3 5 -2 -5 1 -1 1 3 -3 -0 -1 0 -1
19 16 -5 7 0 3 2 -2 0 -1 3 -6 2 5 1 -6 -4 -3 -5 -3 -2 1 2 2 3 5 -2 -2 -1 3 2 3 2 2 2 -11 1 -1 0 -4 -0 -0 2
7 28 14 2 8 10 -3 2 -1 5 26 -3 4 -4 1 3 -3 -2 -0 1 3 3 -1 -3 -3 3 3 3 -2 -5 3 5 7 -4 5 -6 3 1 10 -8 -1 -5 -3
5 20 8 -4 3 -0 -1 -1 -3 6 6 18 8 19 2 3 8 8 -8 -16 6 -3 -3 -3 -1 -4 -1 2 -1 -3 -3 3 13 -1 -1 -2 7 1 2 -9 -4 -2 -2
33 -3 2 -1 2 -0 -1 -3 -2 1 2 2 3 5 8 4 -1 -1 2 -7 -5 -11 1 7 -1 2 -2 -3 -3 1 0 -4 10 -1 -5 -0 1 2 7 -1 5 -1 5
14 3 8 1 1 -3 -3 -1 -0 -5 -1 -4 0 4 5 3 2 5 7 -8 -6 -14 -8 -3 -6 -1 4 5 -0 -2 3 5 2 -5 -3 6 4 3 -3 -3 14 -9 2
-0 -9 4 0 3 1 -0 -1 -0 0 2 1 -1 1 0 -3 17 21 -3 8 -0 -2 -4 -17 -4 -4 -3 -2 2 12 4 7 -3 -2 -4 7 1 -4 4 2 2 -5 -18
8 4 2 -1 1 -2 2 -2 3 -0 1 3 -1 11 4 -0 6 4 5 9 33 9 -4 -12 -8 5 2 -3 -8 3 -7 -12 9 -2 2 -3 6 6 4 12 -4 4 0
8 4 2 1 -3 -3 2 -6 6 1 2 3 -8 9 -8 4 9 1 1 0 5 6 3 13 1 -7 3 1 1 2 0 -5 -1 -8 8 3 -4 4 6 1 4 1 2
0 3 2 3 -2 -1 0 -3 -4 1 -4 -3 -0 -4 -7 6 -2 -9 5 -1 4 -4 3 -4 2 9 18 14 12 4 3 -0 -5 -10 5 -6 14 5 1 0 3 -0 3
-1 -6 -7 1 -2 -2 4 -0 3 0 -2 -2 0 -2 -5 3 3 2 -1 -4 2 5 -4 -5 1 -4 -4 11 -1 10 0 -1 -3 -1 -0 2 7 1 -5 -2 1 4 -1
-6 -8 -12 -2 5 3 -1 -1 0 3 0 2 2 -1 -9 -10 -5 0 -0 -6 2 4 -3 0 -9 -3 -9 6 26 6 13 12 7 5 3 8 3 -1 1 0 1 -1 2
2 4 3 -1 -4 -2 -1 -3 -3 -2 -4 1 -5 3 -3 0 3 1 -1 -0 -1 -1 1 1 -1 -1 -4 -5 -6 12 3 6 -1 0 3 1 -0 0 2 -0 -2 2 2
-0 -1 0 2 1 1 1 -3 -5 -0 2 0 0 -1 1 2 2 -0 -1 -0 -0 -1 0 -1 -1 -3 -2 -3 -1 -2 -2 -2 -2 -5 -2 -4 5 2 0 2 -1 -4 4
-1 -2 -2 -2 -1 0 0 0 0 -2 -1 -1 -1 0 1 2 2 -0 -3 -1 1 -1 -1 1 -1 -0 -0 -0 1 2 2 -1 -10 1 -1 -4 5 -1 -6 -4 -3 -4 10
-2 -1 -1 -1 -1 1 1 2 1 0 2 2 1 2 1 2 3 1 -1 0 2 2 4 4 2 1 -3 -2 -1 -6 -3 4 1 1 3 -10 -3 -7 -4 -5 5 12 0
-2 -3 -2 -0 0 0 0 -0 -3 -4 -5 -5 -5 -3 -2 -3 -1 2 -2 2 0 1 0 -0 3 -4 2 -4 2 1 -2 -4 -4 -4 3 -0 -5 -4 -0 2 2 4 4
-2 -3 -4 -5 -5 -4 -8 -9 -7 -6 -4 -2 0 1 2 0 1 -0 -4 -5 -8 -10 1 7 5 3 0 4 1 3 -5 3 -6 -4 -7 9 -5 -1 -3 -2 0 2 2
-2 -2 -2 -2 -3 -0 4 1 3 2 -2 -3 -4 -7 -5 -1 5 1 2 -3 -6 -7 -5 -13 -6 2 4 -3 -0 7 1 4 5 -7 -12 5 -1 5 3 -9 2 4 6
Height
1513 1515 1517 1518 1517 1517 1518 1520 1522 1524 1526 1527 1529 1531 1533 1534 1536 1539 1538 1538 1539 1540 1540 1541 1541 1542 1543 1543 1543 1544 1544 1545 1545 1545 1545 1545 1545 1545 1545 1545 1544 1544 1543
1507 1508 1510 1513 1513 1513 1514 1515 1518 1520 1522 1523 1524 1527 1530 1531 1533 1534 1535 1535 1536 1536 1536 1537 1537 1538 1539 1540 1540 1541 1541 1542 1543 1543 1543 1543 1543 1543 1543 1543 1543 1542 1541
1502 1503 1505 1507 1509 1510 1510 1511 1513 1516 1517 1519 1520 1521 1524 1526 1528 1529 1531 1531 1531 1531 1532 1533 1533 1534 1535 1536 1537 1537 1538 1538 1538 1539 1539 1540 1540 1540 1540 1540 1540 1540 1539
1497 1498 1500 1501 1503 1506 1506 1506 1509 1511 1512 1513 1514 1515 1518 1518 1521 1524 1524 1526 1526 1526 1526 1527 1529 1530 1531 1531 1532 1533 1534 1534 1535 1536 1536 1536 1536 1536 1536 1537 1537 1537 1536
1491 1493 1494 1496 1498 1499 1501 1502 1505 1506 1507 1508 1509 1510 1511 1513 1515 1517 1519 1521 1521 1522 1522 1522 1523 1524 1525 1526 1527 1528 1529 1529 1530 1531 1532 1532 1532 1532 1532 1532 1532 1533 1533
1485 1485 1487 1490 1492 1493 1498 1498 1499 1503 1503 1503 1505 1506 1507 1508 1509 1510 1512 1514 1516 1517 1517 1517 1517 1518 1519 1520 1521 1523 1524 1525 1524 1526 1527 1527 1527 1528 1528 1528 1528 1528 1529
1479 1480 1482 1484 1486 1489 1492 1495 1494 1498 1498 1499 1501 1500 1502 1503 1503 1504 1505 1506 1507 1509 1510 1510 1510 1511 1512 1514 1515 1516 1518 1519 1519 1520 1521 1523 1522 1523 1523 1524 1525 1525 1525
1472 1474 1475 1477 1480 1483 1487 1489 1487 1490 1491 1494 1497 1497 1495 1496 1497 1499 1499 1498 1499 1501 1503 1504 1503 1503 1504 1507 1508 1509 1510 1512 1513 1514 1516 1516 1518 1518 1518 1519 1520 1520 1520
1466 1463 1468 1471 1473 1476 1479 1482 1484 1485 1485 1488 1491 1493 1491 1488 1491 1492 1491 1491 1492 1492 1493 1496 1497 1497 1497 1499 1500 1501 1503 1505 1506 1507 1509 1510 1512 1513 1513 1514 1514 1515 1516
1459 1457 1455 1464 1466 1471 1474 1477 1479 1480 1482 1483 1484 1485 1484 1485 1485 1486 1487 1486 1486 1485 1484 1485 1486 1489 1490 1491 1492 1493 1494 1497 1499 1500 1501 1503 1505 1506 1507 1508 1509 1510 1511
1453 1444 1450 1457 1461 1464 1468 1471 1474 1476 1477 1478 1477 1477 1477 1478 1480 1481 1478 1477 1480 1479 1478 1477 1478 1477 1479 1480 1481 1484 1486 1487 1489 1490 1493 1495 1497 1499 1500 1501 1502 1504 1506
1444 1440 1445 1454 1457 1460 1463 1467 1469 1471 1471 1471 1472 1472 1473 1472 1473 1473 1473 1471 1469 1469 1471 1471 1471 1471 1471 1471 1472 1474 1477 1479 1479 1481 1485 1487 1490 1492 1493 1494 1495 1498 1500
1440 1439 1446 1452 1456 1458 1459 1463 1464 1465 1467 1466 1466 1466 1466 1466 1466 1468 1465 1463 1461 1461 1459 1459 1460 1461 1462 1463 1464 1466 1468 1470 1471 1472 1475 1478 1481 1484 1485 1487 1488 1491 1493
1447 1448 1452 1453 1454 1453 1455 1458 1459 1460 1460 1460 1459 1459 1459 1459 1459 1457 1457 1457 1452 1451 1448 1445 1449 1450 1451 1452 1454 1457 1460 1461 1463 1465 1466 1469 1471 1475 1477 1480 1480 1483 1486
1454 1452 1451 1453 1451 1452 1454 1454 1455 1455 1455 1454 1453 1453 1453 1453 1452 1449 1450 1448 1441 1440 1436 1438 1439 1439 1440 1441 1442 1444 1445 1449 1454 1457 1458 1460 1463 1465 1469 1471 1472 1475 1476
1454 1452 1451 1449 1450 1452 1453 1453 1453 1452 1451 1451 1449 1448 1448 1447 1444 1443 1442 1443 1441 1437 1432 1432 1430 1429 1430 1431 1431 1432 1436 1439 1442 1449 1450 1452 1454 1457 1460 1462 1463 1466 1467
1453 1451 1450 1450 1450 1450 1451 1450 1450 1449 1448 1448 1447 1446 1443 1444 1439 1441 1438 1435 1434 1432 1429 1425 1423 1423 1421 1422 1423 1425 1429 1430 1433 1437 1440 1443 1446 1448 1450 1452 1453 1456 1458
1451 1450 1450 1450 1450 1451 1449 1447 1447 1446 1444 1443 1441 1441 1440 1438 1437 1434 1432 1431 1429 1426 1425 1420 1419 1419 1417 1415 1416 1417 1419 1420 1421 1426 1430 1434 1435 1437 1439 1441 1443 1444 1447
1453 1451 1451 1451 1448 1445 1443 1443 1443 1442 1440 1440 1437 1436 1434 1434 1432 1429 1427 1426 1424 1420 1419 1417 1414 1412 1412 1411 1408 1409 1409 1411 1413 1416 1419 1422 1424 1425 1426 1428 1431 1433 1436
1453 1451 1447 1445 1443 1443 1441 1440 1438 1437 1437 1435 1433 1432 1431 1430 1428 1423 1421 1421 1419 1417 1416 1413 1410 1407 1406 1406 1406 1405 1404 1406 1406 1407 1409 1411 1412 1412 1412 1414 1417 1420 1423
1447 1445 1443 1442 1440 1439 1438 1436 1435 1434 1431 1429 1428 1427 1426 1424 1422 1420 1418 1417 1415 1413 1410 1407 1405 1404 1403 1403 1402 1400 1399 1399 1399 1400 1400 1402 1402 1401 1401 1402 1404 1407 1411
1445 1443 1442 1440 1438 1437 1436 1434 1431 1429 1428 1426 1423 1422 1421 1419 1417 1416 1415 1414 1413 1411 1408 1405 1402 1400 1399 1398 1398 1396 1395 1393 1392 1393 1393 1392 1392 1391 1392 1393 1395 1397 1403
1444 1442 1440 1438 1436 1435 1433 1431 1428 1426 1424 1422 1420 1418 1416 1415 1414 1412 1411 1410 1409 1406 1405 1402 1399 1397 1394 1393 1393 1391 1391 1389 1388 1388 1387 1384 1386 1386 1387 1388 1390 1394 1398
1440 1438 1437 1435 1433 1431 1429 1426 1424 1422 1421 1419 1417 1415 1413 1412 1411 1410 1406 1404 1402 1400 1398 1396 1394 1392 1391 1389 1387 1385 1383 1381 1381 1381 1383 1379 1380 1380 1382 1384 1387 1390 1393
1437 1435 1433 1431 1429 1427 1425 1423 1421 1419 1417 1415 1413 1412 1411 1409 1408 1406 1403 1400 1398 1396 1394 1391 1389 1386 1384 1382 1381 1378 1377 1376 1372 1373 1376 1375 1374 1374 1375 1377 1379 1382 1387
1434 1431 1429 1427 1425 1424 1423 1421 1419 1416 1414 1412 1410 1408 1406 1405 1404 1401 1399 1396 1392 1390 1388 1384 1382 1380 1378 1375 1374 1373 1371 1369 1369 1366 1369 1369 1369 1370 1369 1367 1371 1374 1378